Weather History for Indianapolis, IN

Change the Weather History Date:

Sunday, November 10, 2013

  Actual Average Record
Temperature  
Mean Temperature 41 °F 46 °F  
Max Temperature 48 °F 55 °F 75 °F (1949)
Min Temperature 33 °F 37 °F 17 °F (1957)
Degree Days  
Heating Degree Days 24 19  
Month to date heating degree days 186 170  
Since 1 July heating degree days 566 571  
Cooling Degree Days 0 0  
Month to date cooling degree days 0 0  
Year to date cooling degree days 1160 1065  
Moisture  
Dew Point 30 °F    
Average Humidity 61    
Maximum Humidity 75    
Minimum Humidity 46    
Precipitation  
Precipitation 0.00 in 0.11 in 1.54 in (2002)
Month to date precipitation 0.35 1.15  
Year to date precipitation 38.60 36.72  
Snow  
Snow 0.00 in 0.00 in 0.20 in (1943)
Month to date snowfall 0.0 0.1  
Since 1 July snowfall T 0.5  
Since 1 September snowfall T 0.5  
Snow Depth 0.00 in    
Sea Level Pressure  
Sea Level Pressure 30.29 in    
Wind  
Wind Speed 9 mph (WNW)    
Max Wind Speed 20 mph    
Max Gust Speed 25 mph    
Visibility 10 miles    
Events      
T = Trace of Precipitation, MM = Missing Value Source: NWS Daily Summary

Daily Weather History Graph

Daily Weather History Graph

Search for Another Location

Airport:

Trip Planner

Search our weather history database for the weather conditions in past years. The results will help you decide how hot, cold, wet, or windy it might be!

Date:

Astronomy

Nov. 10, 2013 Rise Set
Actual Time 7:24 AM EST 5:33 PM EST
Civil Twilight 6:55 AM EST 6:02 PM EST
Nautical Twilight 6:23 AM EST 6:34 PM EST
Astronomical Twilight 5:51 AM EST 7:06 PM EST
Moon 1:37 PM EST (11/10) 12:03 AM EST (11/10)
Length of Visible Light 11h 06m
Length of Day
10h 09m
First Quarter, 55% of the Moon is Illuminated
Nov 10
First Quarter
Nov 17
Full
Nov 25
Last Quarter
Dec 2
New
Dec 9
First Quarter

Hourly Weather History & Observations

Time (EST) Temp. Windchill Dew Point Humidity Pressure Visibility Wind Dir Wind Speed Gust Speed Precip Events Conditions
12:54 AM 44.1 °F 39.0 °F 35.1 °F 71% 30.13 in 10.0 mi West 9.2 mph - N/A   Clear
1:54 AM 46.0 °F 41.0 °F 35.1 °F 66% 30.14 in 10.0 mi West 10.4 mph - N/A   Clear
2:54 AM 46.0 °F 39.0 °F 34.0 °F 63% 30.15 in 10.0 mi WNW 17.3 mph 23.0 mph N/A   Clear
3:54 AM 43.0 °F 35.4 °F 32.0 °F 65% 30.17 in 10.0 mi WNW 16.1 mph 23.0 mph N/A   Clear
4:54 AM 41.0 °F 34.3 °F 32.0 °F 70% 30.19 in 10.0 mi WNW 11.5 mph - N/A   Clear
5:54 AM 39.9 °F 32.1 °F 30.0 °F 68% 30.23 in 10.0 mi NW 13.8 mph - N/A   Clear
6:54 AM 37.0 °F 29.3 °F 28.9 °F 73% 30.25 in 10.0 mi WNW 11.5 mph - N/A   Partly Cloudy
7:54 AM 37.0 °F 30.4 °F 28.0 °F 70% 30.28 in 10.0 mi West 9.2 mph - N/A   Partly Cloudy
8:54 AM 39.0 °F 30.3 °F 28.9 °F 67% 30.31 in 10.0 mi WNW 16.1 mph 20.7 mph N/A   Partly Cloudy
9:54 AM 41.0 °F 33.1 °F 28.9 °F 62% 30.33 in 10.0 mi NW 15.0 mph - N/A   Partly Cloudy
10:54 AM 43.0 °F 36.0 °F 28.9 °F 58% 30.35 in 10.0 mi NW 13.8 mph 20.7 mph N/A   Partly Cloudy
11:54 AM 45.0 °F 39.3 °F 28.9 °F 53% 30.35 in 10.0 mi NW 11.5 mph - N/A   Partly Cloudy
12:54 PM 46.0 °F 41.4 °F 28.9 °F 51% 30.35 in 10.0 mi WNW 9.2 mph - N/A   Partly Cloudy
1:54 PM 46.9 °F - 30.0 °F 52% 30.34 in 10.0 mi NW 8.1 mph - N/A   Partly Cloudy
2:54 PM 46.9 °F - 28.9 °F 50% 30.33 in 10.0 mi WNW 9.2 mph - N/A   Scattered Clouds
3:54 PM 48.0 °F - 28.9 °F 48% 30.33 in 10.0 mi NW 10.4 mph - N/A   Scattered Clouds
4:54 PM 46.0 °F 41.4 °F 28.9 °F 51% 30.34 in 10.0 mi NW 9.2 mph - N/A   Scattered Clouds
5:54 PM 42.1 °F 39.2 °F 28.0 °F 58% 30.34 in 10.0 mi NW 4.6 mph - N/A   Partly Cloudy
6:54 PM 39.9 °F - 28.0 °F 63% 30.35 in 10.0 mi Calm Calm - N/A   Clear
7:54 PM 39.0 °F 36.8 °F 28.0 °F 65% 30.36 in 10.0 mi WSW 3.5 mph - N/A   Partly Cloudy
8:54 PM 39.9 °F - 28.0 °F 63% 30.34 in 10.0 mi Calm Calm - N/A   Clear
9:54 PM 35.1 °F 29.3 °F 28.0 °F 76% 30.32 in 10.0 mi South 6.9 mph - N/A   Clear
10:54 PM 35.1 °F 32.2 °F 28.9 °F 78% 30.33 in 10.0 mi WSW 3.5 mph - N/A   Overcast
11:54 PM 36.0 °F 33.3 °F 28.0 °F 73% 30.30 in 10.0 mi WSW 3.5 mph - N/A   Mostly Cloudy